Temperature
18 18 18 18 18 18 18 18 18 18 18 18 18 18 18 18 18 18 19 19 19 18 18 18 18 18 18 18 17 17 17 17 17 17 17 17 17 17 17 17 17 17 16
18 18 18 18 18 18 18 18 18 18 18 18 18 18 18 18 18 18 18 18 18 18 18 18 18 18 18 18 18 17 17 17 17 17 17 17 17 17 17 17 17 16 16
18 18 18 18 18 18 18 18 18 18 18 18 18 18 18 18 18 18 18 18 18 19 19 18 18 18 18 18 18 18 18 17 17 17 17 17 17 17 17 17 17 16 16
19 19 18 18 18 18 18 18 18 18 18 18 18 18 18 18 18 18 18 18 18 18 18 18 18 18 18 18 18 18 18 18 17 17 17 17 17 17 17 17 16 16 16
19 19 18 18 18 18 18 18 18 18 18 18 19 19 19 19 19 18 18 18 18 18 18 18 18 18 18 18 18 18 18 18 18 17 17 17 17 17 17 17 17 16 16
19 19 19 19 18 18 18 18 18 18 18 19 19 19 19 19 19 19 19 18 18 18 18 18 18 18 18 18 18 18 18 18 18 18 17 17 17 17 17 17 17 16 16
19 19 19 19 19 18 18 18 18 19 19 19 19 19 19 19 19 19 19 19 19 18 18 18 18 18 18 18 18 18 18 18 18 18 17 17 17 17 17 17 17 17 16
19 19 19 19 19 19 19 19 19 19 19 19 19 19 19 19 19 19 19 19 19 19 18 18 18 18 18 18 18 18 18 18 18 18 17 17 17 17 17 17 17 16 16
19 19 19 19 19 19 19 19 19 19 19 19 19 19 19 19 19 19 19 19 19 19 19 19 18 18 18 18 18 18 18 18 17 17 17 17 17 17 17 17 17 16 16
19 19 19 19 19 19 19 19 19 19 19 19 19 19 19 19 19 19 19 19 19 19 19 18 18 18 18 18 18 18 18 18 17 17 17 17 17 17 17 17 16 16 16
19 19 19 19 19 19 19 19 19 19 19 19 19 19 19 19 19 19 19 19 19 19 19 18 18 18 18 18 18 18 18 18 17 17 17 17 17 17 17 17 17 16 16
19 19 19 19 19 19 19 19 19 19 19 19 19 19 19 19 19 19 19 19 19 19 19 18 18 18 18 18 18 18 18 17 17 17 17 17 17 17 17 17 16 16 16
19 19 19 20 19 19 19 19 19 19 19 19 19 19 19 19 19 19 18 18 19 19 19 18 18 18 18 18 18 18 17 17 17 17 17 17 17 17 17 17 16 16 16
20 20 20 20 19 19 19 19 19 19 19 19 19 19 18 18 19 19 18 18 18 18 18 18 18 18 18 18 18 17 17 17 17 17 17 17 17 16 16 16 16 16 16
20 20 20 19 19 19 19 19 19 18 18 18 18 18 18 18 18 18 18 18 18 18 18 18 18 18 18 18 17 17 17 17 17 17 17 17 16 16 16 16 16 16 16
20 20 19 19 19 19 19 19 19 18 18 18 18 18 18 18 18 18 18 18 18 18 18 18 18 18 17 17 17 17 17 17 17 17 17 17 16 16 16 16 16 16 16
19 19 19 19 19 19 19 19 18 18 18 18 18 18 18 18 18 18 18 18 18 18 17 17 17 17 17 17 17 17 17 17 17 17 16 16 16 16 16 16 16 16 15
19 19 19 19 19 19 19 18 18 18 18 18 18 18 18 18 18 18 18 17 17 17 17 17 17 17 17 17 17 16 16 16 16 16 16 16 16 16 16 15 15 15 15
19 19 19 19 19 19 18 18 18 18 18 18 18 18 18 18 18 17 17 17 17 17 17 17 17 17 17 17 16 16 16 16 16 16 16 16 16 15 15 15 15 15 15
19 19 19 19 19 18 18 18 18 18 18 18 17 17 17 17 18 18 17 17 17 17 17 17 17 17 16 16 16 16 16 16 15 16 15 15 15 15 15 15 15 15 15
19 19 18 18 18 18 18 18 18 17 17 17 17 17 17 17 17 17 17 17 17 17 17 17 16 16 16 16 16 16 16 15 15 15 15 15 15 15 15 15 15 15 14
18 18 18 18 18 18 18 18 18 17 17 17 17 17 17 17 17 17 17 17 17 17 16 16 16 16 16 16 16 16 15 15 15 15 15 15 15 15 15 15 15 14 14
18 18 18 17 17 18 17 17 17 17 17 17 17 17 16 16 16 16 16 16 16 16 16 16 16 16 16 16 16 15 15 15 15 15 15 15 14 14 14 14 14 14 14
18 18 17 17 17 17 17 17 17 17 17 16 16 16 16 16 16 16 16 16 16 16 16 16 16 16 16 15 15 15 15 15 15 15 14 14 14 14 14 14 14 14 13
17 17 17 17 17 17 17 17 16 16 16 16 16 16 16 16 16 16 16 15 16 16 15 15 15 15 15 15 15 15 15 14 14 14 14 14 14 14 14 14 13 13 13
17 16 16 16 16 16 16 16 16 15 15 15 15 15 15 15 15 15 15 15 15 15 15 15 15 15 15 15 15 14 14 14 14 14 14 14 13 13 13 13 13 13 13
Wind_Speed
5 5 4 5 6 7 6 4 4 4 3 3 4 4 3 3 4 6 10 15 15 15 14 13 13 12 12 12 12 12 12 11 11 11 11 10 10 10 9 9 8 8 8
5 5 5 4 4 5 6 5 4 4 3 3 4 3 3 3 3 6 9 12 15 15 14 14 14 13 13 13 13 13 13 13 12 12 12 12 12 11 11 10 10 10 9
6 4 4 4 3 5 5 3 3 3 3 4 4 4 3 3 3 5 7 9 12 14 14 15 15 14 14 14 14 14 15 14 14 14 13 13 13 13 12 12 12 11 11
7 4 4 4 4 4 3 3 3 3 3 2 2 3 2 2 4 5 6 9 10 11 14 16 15 16 16 15 15 15 15 15 15 15 15 15 14 14 14 14 14 14 13
8 5 3 3 5 3 3 4 4 3 2 3 3 3 3 3 4 5 5 7 9 10 12 15 17 17 17 16 16 16 16 16 16 16 16 16 15 15 15 15 15 15 14
8 6 4 4 4 3 3 2 2 2 2 3 4 3 3 4 4 4 5 5 7 9 11 13 14 14 17 17 16 16 16 16 16 17 17 16 16 16 16 16 15 14 14
7 5 3 4 4 3 4 4 3 3 3 3 3 2 3 3 4 3 4 3 5 7 9 11 12 12 12 17 17 16 15 15 16 16 16 16 16 15 15 14 14 14 14
6 6 5 5 5 3 3 3 3 2 3 3 2 1 1 1 2 5 4 4 4 4 5 9 11 12 11 11 13 16 16 15 15 15 15 16 16 16 16 15 15 15 15
6 4 5 4 4 5 5 5 4 4 3 3 3 2 2 2 1 2 4 3 3 3 4 4 7 9 10 9 10 14 16 15 15 14 13 14 15 16 17 16 15 15 15
6 6 5 5 4 4 5 5 5 4 3 3 2 1 2 1 2 1 2 2 4 3 3 3 3 6 9 7 7 9 13 14 14 13 12 13 13 13 15 16 15 15 15
5 5 5 4 4 4 4 4 4 4 3 3 2 2 3 3 3 2 2 2 2 2 3 3 3 3 6 8 8 9 11 12 12 12 12 12 12 11 11 12 13 13 14
5 6 6 4 4 4 4 4 4 4 3 3 2 2 2 2 3 2 2 2 2 2 3 2 2 2 4 7 9 11 11 12 11 11 10 10 10 10 10 9 10 11 12
5 6 6 5 5 4 4 4 4 4 4 4 3 3 2 2 2 2 2 2 2 2 1 2 3 3 4 5 7 10 10 11 11 10 10 9 9 9 9 9 9 9 9
5 6 6 6 6 5 5 4 4 5 5 5 5 4 3 2 2 2 2 2 2 2 1 2 1 2 3 5 7 8 7 10 10 10 10 9 9 8 8 8 8 8 8
4 6 6 6 6 6 5 5 4 4 4 5 5 5 4 3 3 3 2 2 2 2 3 2 1 1 2 4 7 6 6 9 10 10 10 10 9 8 8 7 6 7 7
3 4 5 6 6 5 6 5 5 5 5 5 4 4 4 3 3 3 3 3 3 3 3 1 2 2 2 3 6 6 7 9 10 10 10 9 9 8 8 7 7 6 6
4 4 4 5 6 6 6 5 6 5 6 5 5 5 5 4 3 3 3 3 3 3 3 2 1 2 2 2 3 3 4 6 8 11 11 10 10 9 8 7 6 6 6
5 5 5 6 6 6 5 6 7 6 6 6 5 5 5 4 4 4 3 3 3 3 4 4 3 3 3 3 3 3 3 5 7 11 12 12 11 10 8 7 7 7 6
5 5 6 6 6 5 5 6 6 6 6 6 6 5 5 4 4 4 4 4 4 4 3 4 3 2 2 2 2 3 3 3 5 8 12 12 12 11 10 9 8 7 6
5 5 5 5 5 5 5 5 5 5 5 5 5 5 5 5 5 5 4 4 4 4 3 3 3 2 2 2 3 3 3 3 3 4 6 9 11 12 11 10 9 8 7
5 4 5 5 5 5 5 5 5 6 5 5 5 4 5 5 6 5 5 3 4 3 3 3 3 2 2 2 3 4 4 3 3 3 3 5 6 6 7 9 9 9 9
4 4 4 5 5 4 3 3 4 4 4 5 5 4 5 5 6 7 7 6 5 5 5 4 3 3 3 3 3 4 3 3 3 3 3 4 4 5 6 8 10 12 11
4 4 4 4 3 3 3 3 4 4 4 4 4 4 5 5 5 5 6 7 7 8 7 5 4 4 4 3 4 4 4 4 4 3 3 4 4 5 5 7 11 13 13
3 4 4 4 3 3 3 3 4 5 5 5 5 5 4 4 4 3 5 5 4 5 7 6 5 5 4 4 4 5 5 5 4 3 3 3 3 4 4 5 11 13 13
2 3 3 3 2 2 3 3 4 4 5 5 5 4 4 4 3 3 4 4 4 4 5 7 7 7 7 6 5 3 3 3 4 3 2 3 3 2 2 3 7 13 13
2 2 2 2 2 2 3 3 3 3 4 4 3 3 3 3 2 2 3 4 5 5 4 5 5 5 6 6 7 5 4 4 3 2 2 2 2 1 2 2 3 6 9
Wind_Direction
148 143 154 163 177 169 167 187 187 186 172 196 215 203 206 204 167 148 157 171 174 180 185 189 194 198 200 200 200 200 199 198 198 198 199 202 203 204 202 200 201 206 211
141 149 159 162 176 165 176 184 175 173 182 198 217 197 200 197 163 155 162 178 185 188 191 194 199 202 206 207 207 206 205 205 205 205 205 207 207 208 210 209 210 214 220
147 153 153 158 173 172 164 175 181 175 194 202 207 209 202 198 179 178 171 183 189 196 199 202 205 207 210 211 213 213 211 211 211 210 211 212 213 214 215 216 217 219 224
155 162 159 166 173 172 165 178 189 191 200 211 205 219 200 186 196 193 192 191 187 193 201 208 210 212 213 214 216 217 216 216 214 214 215 215 217 220 223 223 223 224 227
166 172 170 164 174 179 185 196 181 182 196 212 219 221 213 199 201 214 207 199 190 191 188 203 210 213 214 216 218 219 217 217 218 219 219 220 221 224 225 225 225 227 229
177 179 173 174 184 179 186 206 166 176 200 223 236 226 219 209 203 213 218 209 192 196 192 193 201 213 217 217 220 220 219 219 221 221 221 221 223 225 227 227 226 227 228
182 181 174 169 182 187 187 187 179 204 206 213 234 243 241 217 213 213 215 214 201 200 196 183 189 200 208 216 219 220 221 222 221 220 220 220 221 221 222 221 223 225 227
181 189 178 187 186 187 186 191 190 207 222 207 213 224 249 260 242 219 206 215 208 193 202 195 191 197 201 195 210 217 220 222 222 221 221 220 221 220 220 222 225 226 226
184 193 176 202 185 186 182 193 195 200 219 227 214 203 213 228 244 251 216 204 193 202 216 196 191 191 195 191 193 208 216 219 222 223 223 222 222 222 222 224 225 223 225
190 187 184 195 198 207 176 195 190 205 213 226 231 214 229 217 211 251 258 215 200 207 225 221 190 181 188 187 187 194 207 212 216 219 222 223 222 223 224 225 225 225 225
198 192 185 189 201 209 194 202 180 200 211 221 222 213 224 227 227 225 244 250 228 206 214 214 193 179 183 180 177 188 195 200 206 212 217 221 219 218 221 224 227 228 227
201 198 190 191 203 209 203 199 197 205 219 231 244 249 232 225 227 222 232 247 247 230 207 195 186 190 187 172 181 181 186 190 197 205 212 216 217 217 220 225 229 232 229
198 196 196 188 201 202 205 200 201 215 213 224 233 252 254 255 262 251 233 254 260 240 206 194 204 192 183 149 160 175 181 184 193 201 204 207 212 215 219 222 225 225 224
193 185 187 188 194 199 210 202 210 211 210 219 230 234 242 241 251 250 229 233 268 268 233 219 208 180 153 147 162 175 179 185 191 196 196 199 204 208 211 214 216 219 225
199 177 187 193 198 204 212 205 215 216 207 213 222 226 232 229 230 239 236 233 229 249 254 227 202 153 141 143 168 177 171 186 192 195 195 198 202 204 203 204 208 213 212
205 175 195 202 203 207 212 213 219 216 212 215 214 218 231 234 229 228 228 225 228 234 250 229 213 173 163 170 178 182 181 180 191 194 195 195 196 197 198 200 202 202 206
202 195 208 219 212 208 211 214 222 213 216 218 220 214 220 232 239 247 237 233 234 234 237 244 209 189 180 190 174 195 174 177 191 198 195 194 193 193 193 194 197 201 204
203 205 214 224 222 214 211 219 229 222 217 216 220 222 227 230 233 254 254 248 240 230 221 231 225 203 200 196 183 199 190 195 187 197 194 191 190 191 191 196 202 208 210
210 216 218 220 224 221 216 225 232 229 226 221 218 220 227 229 242 243 241 245 247 246 225 225 232 209 196 184 181 204 216 207 209 193 191 192 194 194 194 197 201 207 212
211 217 223 225 225 227 224 224 231 230 233 233 229 224 223 223 236 241 243 245 249 253 245 233 231 211 185 183 195 217 229 216 218 198 189 189 193 197 200 199 202 207 210
214 215 225 230 226 230 232 227 227 228 230 238 237 224 223 222 225 229 239 232 235 237 240 239 235 212 203 189 213 224 230 218 213 202 191 195 182 188 196 204 205 210 210
222 220 221 226 227 232 219 224 233 239 232 237 243 233 228 219 219 218 225 225 224 230 236 238 233 220 221 223 221 231 230 227 231 199 199 215 193 196 190 193 199 202 206
217 222 222 228 229 233 231 223 234 244 240 236 241 247 252 241 225 227 228 225 228 231 234 237 243 246 237 227 228 239 240 239 240 215 207 228 203 205 196 197 192 197 202
217 229 228 228 228 239 237 229 232 231 241 240 238 237 238 252 257 250 241 237 234 237 233 230 238 252 250 239 229 230 239 244 242 218 189 228 222 216 201 183 193 193 197
214 224 228 221 227 249 251 238 236 238 236 239 239 244 229 230 254 251 240 241 238 243 241 236 229 230 230 227 223 224 233 242 255 235 197 218 237 222 205 204 194 197 198
216 222 227 221 222 235 245 240 243 246 243 243 235 229 220 221 237 232 237 246 245 243 245 244 240 235 226 225 215 218 229 236 258 251 202 209 235 225 233 211 188 186 198
Height
1528 1530 1532 1534 1536 1538 1539 1541 1543 1544 1546 1547 1549 1550 1551 1552 1553 1553 1554 1554 1555 1556 1557 1557 1558 1559 1560 1562 1563 1564 1565 1566 1567 1568 1569 1571 1572 1573 1574 1575 1576 1577 1578
1529 1531 1533 1534 1536 1538 1540 1541 1543 1545 1546 1547 1548 1550 1551 1552 1552 1553 1553 1554 1554 1555 1556 1556 1557 1558 1559 1560 1561 1563 1564 1565 1566 1567 1568 1569 1570 1571 1572 1573 1574 1575 1576
1530 1531 1533 1535 1537 1539 1540 1542 1543 1545 1546 1547 1548 1549 1550 1551 1551 1552 1552 1553 1553 1554 1555 1555 1556 1557 1558 1559 1560 1561 1562 1563 1564 1565 1566 1567 1568 1569 1570 1571 1572 1573 1574
1529 1531 1533 1534 1536 1538 1540 1541 1543 1544 1545 1546 1547 1548 1549 1549 1550 1551 1551 1551 1552 1552 1553 1554 1554 1555 1556 1556 1558 1559 1560 1561 1562 1563 1564 1565 1566 1567 1568 1569 1570 1570 1571
1529 1531 1532 1534 1536 1537 1539 1540 1542 1543 1544 1545 1546 1547 1548 1548 1549 1549 1550 1550 1551 1551 1551 1552 1552 1553 1554 1554 1555 1556 1557 1558 1559 1560 1561 1562 1563 1564 1565 1566 1567 1568 1569
1529 1530 1532 1533 1535 1536 1538 1539 1541 1542 1543 1544 1545 1546 1546 1546 1547 1548 1548 1549 1549 1549 1549 1550 1550 1551 1551 1552 1553 1554 1555 1556 1556 1557 1558 1559 1560 1561 1562 1563 1564 1565 1565
1529 1530 1531 1532 1534 1535 1536 1538 1539 1540 1542 1542 1543 1544 1544 1544 1545 1545 1546 1547 1547 1547 1548 1548 1548 1548 1549 1550 1551 1552 1552 1553 1554 1554 1555 1556 1557 1558 1558 1559 1560 1561 1562
1528 1530 1530 1531 1532 1534 1535 1536 1537 1539 1540 1541 1542 1543 1543 1544 1543 1543 1544 1544 1545 1545 1546 1546 1546 1546 1547 1547 1548 1549 1550 1550 1551 1551 1552 1552 1553 1554 1555 1556 1556 1557 1558
1527 1528 1529 1530 1531 1532 1533 1534 1535 1537 1538 1539 1540 1542 1542 1541 1541 1542 1542 1542 1543 1543 1544 1544 1544 1544 1545 1545 1545 1546 1547 1547 1548 1548 1549 1549 1550 1550 1551 1552 1553 1553 1554
1525 1526 1528 1528 1529 1530 1531 1532 1533 1535 1536 1537 1538 1539 1540 1540 1540 1540 1540 1540 1541 1541 1541 1542 1542 1542 1542 1542 1543 1544 1544 1544 1545 1545 1545 1546 1546 1547 1547 1548 1549 1549 1550
1523 1524 1525 1526 1527 1528 1529 1530 1532 1533 1534 1535 1536 1536 1537 1538 1538 1538 1538 1539 1539 1538 1538 1539 1539 1539 1539 1539 1540 1540 1541 1541 1541 1542 1542 1542 1542 1543 1543 1544 1545 1545 1546
1521 1522 1523 1524 1525 1526 1527 1528 1530 1530 1531 1532 1533 1534 1535 1535 1535 1536 1536 1536 1536 1536 1536 1537 1537 1537 1537 1537 1537 1538 1538 1538 1538 1538 1538 1538 1539 1539 1540 1540 1541 1542 1542
1518 1520 1521 1522 1523 1524 1525 1526 1527 1528 1529 1530 1530 1531 1532 1532 1533 1533 1534 1534 1534 1534 1534 1534 1534 1535 1535 1535 1534 1535 1535 1535 1535 1535 1535 1535 1535 1535 1536 1536 1537 1537 1538
1516 1517 1519 1520 1521 1522 1523 1524 1525 1526 1527 1527 1528 1528 1529 1529 1530 1531 1532 1532 1532 1532 1532 1533 1532 1532 1532 1532 1532 1532 1532 1532 1532 1532 1532 1532 1532 1532 1532 1533 1533 1534 1534
1514 1515 1516 1517 1518 1520 1521 1522 1523 1523 1524 1525 1525 1526 1526 1527 1527 1528 1529 1530 1531 1530 1530 1530 1530 1530 1530 1530 1529 1529 1529 1529 1529 1528 1528 1528 1529 1529 1529 1530 1530 1531 1531
1512 1513 1514 1515 1516 1517 1518 1519 1520 1521 1522 1522 1522 1523 1523 1524 1524 1525 1526 1526 1527 1528 1527 1527 1527 1527 1527 1527 1526 1526 1526 1526 1526 1526 1526 1526 1526 1526 1527 1527 1527 1527 1528
1509 1510 1511 1512 1513 1513 1514 1515 1516 1517 1518 1519 1519 1520 1520 1521 1522 1522 1523 1523 1524 1524 1524 1524 1525 1525 1525 1525 1524 1524 1524 1524 1523 1523 1523 1523 1523 1523 1523 1523 1524 1524 1524
1505 1506 1507 1508 1509 1510 1511 1512 1513 1514 1515 1515 1516 1517 1517 1518 1518 1519 1519 1520 1520 1521 1521 1521 1521 1522 1522 1522 1522 1522 1521 1521 1521 1521 1520 1520 1520 1520 1520 1520 1520 1521 1521
1502 1503 1504 1504 1505 1506 1508 1509 1510 1510 1511 1512 1512 1513 1514 1514 1515 1515 1516 1516 1517 1517 1518 1518 1518 1519 1519 1519 1519 1519 1519 1519 1518 1518 1518 1518 1518 1518 1517 1518 1518 1518 1518
1498 1499 1500 1501 1501 1503 1504 1505 1506 1507 1508 1508 1509 1510 1510 1511 1511 1512 1512 1513 1513 1514 1514 1515 1515 1516 1516 1516 1516 1516 1516 1516 1516 1516 1515 1515 1515 1515 1515 1515 1515 1515 1515
1494 1495 1496 1497 1498 1499 1500 1501 1502 1503 1503 1504 1505 1505 1506 1507 1507 1508 1508 1508 1509 1510 1510 1511 1511 1512 1512 1512 1512 1512 1513 1512 1512 1513 1512 1512 1511 1511 1511 1511 1512 1512 1512
1490 1491 1492 1493 1494 1495 1496 1497 1498 1498 1499 1499 1500 1501 1501 1502 1502 1503 1504 1504 1505 1506 1506 1506 1507 1507 1507 1508 1509 1509 1509 1509 1508 1509 1509 1508 1508 1508 1508 1508 1508 1508 1508
1486 1487 1488 1489 1489 1491 1492 1493 1493 1494 1494 1495 1496 1496 1497 1497 1498 1499 1499 1500 1500 1501 1502 1502 1503 1503 1503 1504 1505 1505 1505 1505 1505 1505 1505 1505 1504 1504 1504 1504 1504 1504 1504
1483 1484 1484 1485 1486 1487 1488 1488 1489 1490 1490 1490 1491 1492 1492 1493 1493 1494 1494 1494 1495 1495 1496 1497 1498 1498 1499 1500 1500 1501 1501 1501 1501 1502 1501 1501 1501 1500 1500 1500 1500 1500 1501
1478 1479 1480 1481 1481 1482 1483 1483 1484 1485 1485 1485 1486 1487 1488 1488 1489 1489 1489 1490 1490 1491 1492 1492 1493 1494 1494 1494 1495 1496 1496 1497 1496 1497 1497 1497 1497 1497 1497 1496 1496 1496 1496
1474 1475 1476 1477 1478 1478 1479 1479 1480 1480 1480 1481 1481 1482 1483 1483 1484 1484 1485 1485 1485 1486 1487 1487 1488 1488 1489 1489 1490 1491 1491 1492 1492 1492 1492 1493 1493 1493 1493 1492 1492 1492 1492